Погода в Батманах

Россия / Ивановская область     57°15′47″N   42°18′13″E
темп.,
°C
ветер,
м/с
пор.,
м/с
влажн.,
%
обл.,
%
осадки,
мм/ч
давл.,
гПа
погр.,
м
6 мая, чт
чт600:00+4юв2390100 0.3 100975
03:00+4вюв2493100 0.4 1009145
06:00+6юв1295100 0.0 1009108
09:00+11ююв4787100 0.0 1009575
12:00+16ю71066100 0.2 10071113
15:00+16ююз71363100 1.4 10071743
18:00+14ююз71469100 0.8 10061234
21:00+12ююз81673100 1.1 10061497
7 мая, пт
пт700:00+10ююз61288100 0.3 1007988
03:00+8з3788100 1.1 1008492
06:00+7юз3990100 0.0 1009510
09:00+9зюз5774100 0.0 1010901
12:00+12зюз694648 0.1 10112280
15:00+14зюз693879 0.1 10122675
18:00+13юз37505 0.0 1013575
21:00+7ююз366875 0.0 101590
8 мая, сб
сб800:00+6ю3875100 0.0 1015144
03:00+6ююв397549 0.0 1015182
06:00+7ююв41271100 0.0 1015316
09:00+13ююв7115292 0.0 10131218
12:00+15ююв71047100 0.0 10101797
15:00+15ююв81353100 0.0 10081921
18:00+11юв61586100 1.6 1006845
21:00+12ююв71390100 1.8 1004863
9 мая, вс
вс900:00+11ю61295100 3.4 1002872
03:00+6зюз41195100 9.7 1005645
06:00+6юз4991100 0.4 1007688
09:00+7юз5981100 0.5 10091028
12:00+7юз5875100 0.1 10111291
15:00+7з5776100 0.2 1014981
18:00+7зсз4975100 0.1 10161058
21:00+5сз2381100 0.1 101968
10 мая, пн
пн1000:00+3ссз378913 0.0 1021141
03:00+1с38910 0.0 1023165
06:00+3ссв27832 0.0 1026219
09:00+9ссв46544 0.0 1026825
12:00+12с45435 0.0 10261386
15:00+14с343981 0.0 10271596
18:00+13ссв24535 0.0 1027207
21:00+7ссв22675 0.0 102911